Terug naar catalogus

TIANLIAN 1-O5

ActiefCommunicatieGEO
NORAD 49011·PAYLOAD·🇨🇳 China

Gelanceerd Jul 6, 2021 vanaf Xichang Satellite Launch Center

Loading…

TLE

VersSource: Space-Track

Epoch: Sep 14, 2026, 13:53 UTC

1 49011U 21063A   26257.57848103  .00000101  00000-0  00000-0 0  9997
2 49011   1.8181  79.7906 0003374 138.3882   0.4444  1.00272900 18976

Volg TIANLIAN 1-O5 in realtime met AllMySat

Download on the App Store